EW5655 Weather Reports


time (UTC)temp
C
wind
direction
speed
KPH
gust
KPH
rain 1hr
cm
rain 24hr
cm
rain mn
cm
humidity
%
barometer
mb
20260901003025 33 290 9.7 17.7 0.00 0.00 0.00 24 1014.4
20260901002515 33 232 8.0 16.1 0.00 0.00 0.00 22 1014.4
20260901002015 33 171 8.0 14.5 0.00 0.00 0.00 21 1014.4
20260901001519 33 196 6.4 12.9 0.00 0.00 0.00 20 1014.3
20260901001014 34 215 8.0 12.9 0.00 0.00 0.00 21 1014.3
20260901000514 34 188 6.4 12.9 0.00 0.00 0.00 21 1014.3
20260901000014 34 201 6.4 16.1 0.00 0.00 0.00 21 1014.3
20260831235515 34 200 8.0 17.7 0.00 0.00 0.00 21 1014.3
20260831235017 35 176 9.7 17.7 0.00 0.00 0.00 21 1014.3
20260831234514 35 170 6.4 19.3 0.00 0.00 0.00 20 1014.2
20260831234013 35 188 11.3 19.3 0.00 0.00 0.00 20 1014.2
20260831233514 36 248 4.8 17.7 0.00 0.00 0.00 20 1014.1
20260831233013 35 200 9.7 17.7 0.00 0.00 0.00 20 1014.1
20260831232513 35 192 8.0 17.7 0.00 0.00 0.00 20 1014.1
20260831232013 35 186 9.7 17.7 0.00 0.00 0.00 20 1014.1
20260831231513 36 194 11.3 17.7 0.00 0.00 0.00 19 1014.1
20260831231013 36 170 9.7 14.5 0.00 0.00 0.00 19 1014.0
20260831230513 36 171 6.4 14.5 0.00 0.00 0.00 19 1014.0
20260831230014 36 263 6.4 14.5 0.00 0.00 0.00 19 1014.1
20260831225511 36 207 6.4 16.1 0.00 0.00 0.00 19 1014.2
20260831225011 36 212 9.7 16.1 0.00 0.00 0.00 19 1014.2
20260831224510 36 181 9.7 16.1 0.00 0.00 0.00 19 1014.2
20260831224010 36 211 9.7 16.1 0.00 0.00 0.00 20 1014.3
20260831223509 36 215 9.7 16.1 0.00 0.00 0.00 18 1014.4
20260831223009 36 200 9.7 20.9 0.00 0.00 0.00 15 1014.5
20260831222509 36 170 8.0 20.9 0.00 0.00 0.00 16 1014.6
20260831222008 37 232 11.3 17.7 0.00 0.00 0.00 17 1014.6
20260831221520 37 142 3.2 17.7 0.00 0.00 0.00 17 1014.6
20260831221010 37 173 11.3 22.5 0.00 0.00 0.00 15 1014.6
20260831220509 37 218 11.3 22.5 0.00 0.00 0.00 15 1014.6
20260831220008 37 211 9.7 20.9 0.00 0.00 0.00 15 1014.7
20260831215506 37 161 9.7 20.9 0.00 0.00 0.00 16 1014.8
20260831215006 37 123 8.0 17.7 0.00 0.00 0.00 16 1014.9
20260831214504 37 172 9.7 17.7 0.00 0.00 0.00 19 1015.0
20260831214004 37 165 11.3 24.1 0.00 0.00 0.00 18 1015.0
20260831213502 37 198 12.9 24.1 0.00 0.00 0.00 18 1015.2
20260831213003 37 246 8.0 17.7 0.00 0.00 0.00 18 1015.2
20260831212502 37 219 8.0 19.3 0.00 0.00 0.00 18 1015.3
20260831212102 37 211 8.0 19.3 0.00 0.00 0.00 19 1015.4
20260831211601 37 175 4.8 17.7 0.00 0.00 0.00 19 1015.4
20260831211058 37 216 9.7 19.3 0.00 0.00 0.00 19 1015.6
20260831210559 36 174 11.3 19.3 0.00 0.00 0.00 20 1015.6
20260831210100 36 147 6.4 17.7 0.00 0.00 0.00 21 1015.6
20260831205601 36 200 8.0 14.5 0.00 0.00 0.00 21 1015.8
20260831205058 35 267 1.6 11.3 0.00 0.00 0.00 22 1015.8
20260831204558 36 292 3.2 11.3 0.00 0.00 0.00 22 1015.9
20260831204057 36 169 0.0 14.5 0.00 0.00 0.00 21 1016.1
20260831203557 37 111 6.4 14.5 0.00 0.00 0.00 22 1016.2
20260831203104 36 202 6.4 16.1 0.00 0.00 0.00 21 1016.3
20260831202556 36 195 8.0 16.1 0.00 0.00 0.00 21 1016.4
20260831202056 36 226 8.0 16.1 0.00 0.00 0.00 21 1016.5
20260831201557 36 281 8.0 17.7 0.00 0.00 0.00 21 1016.6
20260831201056 36 238 8.0 17.7 0.00 0.00 0.00 21 1016.6
20260831200557 36 225 8.0 12.9 0.00 0.00 0.00 21 1016.7
20260831200059 36 29 1.6 11.3 0.00 0.00 0.00 21 1016.7
20260831195555 36 312 6.4 11.3 0.00 0.00 0.00 21 1016.7
20260831195057 36 51 0.0 12.9 0.00 0.00 0.00 22 1016.8
20260831194624 36 171 4.8 12.9 0.00 0.00 0.00 21 1016.9
20260831194056 36 238 6.4 11.3 0.00 0.00 0.00 21 1017.0
20260831193557 36 178 1.6 8.0 0.00 0.00 0.00 22 1017.0
20260831193057 36 42 0.0 8.0 0.00 0.00 0.00 23 1017.1
20260831192553 35 32 3.2 9.7 0.00 0.00 0.00 23 1017.1
20260831192053 35 8 3.2 9.7 0.00 0.00 0.00 21 1017.1
20260831191553 36 7 3.2 11.3 0.00 0.00 0.00 22 1017.2
20260831191054 35 153 3.2 11.3 0.00 0.00 0.00 22 1017.3
20260831190553 35 207 4.8 8.0 0.00 0.00 0.00 22 1017.3
20260831190114 35 188 3.2 9.7 0.00 0.00 0.00 22 1017.3
20260831185552 35 166 3.2 11.3 0.00 0.00 0.00 23 1017.4
20260831185050 35 161 4.8 11.3 0.00 0.00 0.00 22 1017.5
20260831184559 35 252 3.2 12.9 0.00 0.00 0.00 23 1017.4
20260831184049 35 213 6.4 12.9 0.00 0.00 0.00 24 1017.5
20260831183548 35 306 4.8 9.7 0.00 0.00 0.00 22 1017.6
20260831183046 35 109 0.0 6.4 0.00 0.00 0.00 23 1017.6
20260831182547 34 66 0.0 6.4 0.00 0.00 0.00 23 1017.7
20260831182045 33 27 0.0 8.0 0.00 0.00 0.00 24 1017.7
20260831181548 34 352 1.6 11.3 0.00 0.00 0.00 24 1017.7
20260831181042 34 323 3.2 11.3 0.00 0.00 0.00 24 1017.8
20260831180542 33 238 1.6 6.4 0.00 0.00 0.00 24 1017.9
20260831180042 33 329 1.6 9.7 0.00 0.00 0.00 25 1017.9
20260831175540 33 227 6.4 11.3 0.00 0.00 0.00 25 1017.9
20260831175040 33 159 1.6 11.3 0.00 0.00 0.00 25 1017.9
20260831174540 33 140 4.8 11.3 0.00 0.00 0.00 25 1017.9
20260831174042 33 143 4.8 11.3 0.00 0.00 0.00 25 1018.0
20260831173537 33 271 3.2 8.0 0.00 0.00 0.00 25 1018.0
20260831173037 33 350 1.6 8.0 0.00 0.00 0.00 26 1018.1
20260831172533 33 329 1.6 8.0 0.00 0.00 0.00 26 1018.1
20260831172033 32 357 1.6 8.0 0.00 0.00 0.00 26 1018.1
20260831171531 32 3 0.0 9.7 0.00 0.00 0.00 26 1018.1
20260831171030 32 321 4.8 9.7 0.00 0.00 0.00 26 1018.1
20260831170531 32 348 0.0 3.2 0.00 0.00 0.00 27 1018.2
20260831170029 32 348 0.0 9.7 0.00 0.00 0.00 27 1018.2
20260831165527 32 281 4.8 9.7 0.00 0.00 0.00 27 1018.3
20260831165027 32 25 1.6 8.0 0.00 0.00 0.00 28 1018.3
20260831164526 31 202 3.2 9.7 0.00 0.00 0.00 28 1018.3
20260831164025 31 173 3.2 9.7 0.00 0.00 0.00 28 1018.3
20260831163525 31 248 6.4 9.7 0.00 0.00 0.00 29 1018.3
20260831163024 31 209 3.2 9.7 0.00 0.00 0.00 29 1018.3
20260831162523 31 208 3.2 8.0 0.00 0.00 0.00 30 1018.4
20260831162022 30 250 3.2 8.0 0.00 0.00 0.00 30 1018.4
20260831161520 30 281 1.6 9.7 0.00 0.00 0.00 30 1018.4
20260831161019 30 297 4.8 9.7 0.00 0.00 0.00 31 1018.3
20260831160519 30 327 1.6 9.7 0.00 0.00 0.00 31 1018.3
20260831160020 30 286 4.8 8.0 0.00 0.00 0.00 32 1018.2
20260831155519 29 330 1.6 11.3 0.00 0.00 0.00 33 1018.2
20260831155016 29 238 3.2 11.3 0.00 0.00 0.00 33 1018.3
20260831154523 29 319 3.2 11.3 0.00 0.00 0.00 33 1018.2
20260831154014 28 294 3.2 9.7 0.00 0.00 0.00 34 1018.2
20260831153512 28 271 1.6 8.0 0.00 0.00 0.00 34 1018.2
20260831153016 28 295 1.6 8.0 0.00 0.00 0.00 33 1018.1
20260831152512 28 286 3.2 8.0 0.00 0.00 0.00 34 1018.2
20260831152012 28 294 3.2 8.0 0.00 0.00 0.00 34 1018.1
20260831151511 28 286 1.6 8.0 0.00 0.00 0.00 35 1018.1
20260831151011 27 310 0.0 8.0 0.00 0.00 0.00 36 1018.1
20260831150511 27 348 3.2 8.0 0.00 0.00 0.00 35 1018.0
20260831150010 27 354 3.2 8.0 0.00 0.00 0.00 36 1018.0
20260831145508 27 355 3.2 11.3 0.00 0.00 0.00 37 1018.0
20260831145012 27 333 3.2 11.3 0.00 0.00 0.00 37 1018.1
20260831144508 27 1 3.2 9.7 0.00 0.00 0.00 37 1018.0
20260831144009 27 316 1.6 9.7 0.00 0.00 0.00 37 1018.0
20260831143507 26 1 1.6 8.0 0.00 0.00 0.00 37 1017.9
20260831143008 26 346 1.6 8.0 0.00 0.00 0.00 38 1017.9
20260831142504 26 359 0.0 8.0 0.00 0.00 0.00 39 1017.8
20260831142003 26 46 0.0 6.4 0.00 0.00 0.00 39 1017.9
20260831141501 25 10 1.6 6.4 0.00 0.00 0.00 40 1017.9
20260831141100 25 45 1.6 6.4 0.00 0.00 0.00 40 1017.9
20260831140558 25 22 1.6 6.4 0.00 0.00 0.00 41 1017.8
20260831140058 25 36 0.0 6.4 0.00 0.00 0.00 42 1017.8
20260831135556 24 50 1.6 4.8 0.00 0.00 0.00 42 1017.8
20260831135056 24 23 0.0 4.8 0.00 0.00 0.00 42 1017.7
20260831134606 23 49 0.0 3.2 0.00 0.00 0.00 43 1017.7
20260831134054 23 49 0.0 3.2 0.00 0.00 0.00 44 1017.6
20260831133553 23 49 0.0 6.4 0.00 0.00 0.00 44 1017.5
20260831133104 23 51 0.0 6.4 0.00 0.00 0.00 44 1017.4
20260831132552 22 71 0.0 8.0 0.00 0.00 0.00 44 1017.4
20260831132055 22 63 1.6 9.7 0.00 0.00 0.00 44 1017.4
20260831131557 22 69 1.6 4.8 0.00 0.00 0.00 44 1017.2
20260831131048 22 69 0.0 8.0 0.00 0.00 0.00 45 1017.1
20260831130548 22 69 1.6 8.0 0.00 0.00 0.00 44 1017.0
20260831130047 23 70 1.6 6.4 0.00 0.00 0.00 44 1017.0
20260831125547 23 71 0.0 6.4 0.00 0.00 0.00 43 1016.9
20260831125046 23 71 1.6 6.4 0.00 0.00 0.00 43 1016.9
20260831124546 22 78 1.6 3.2 0.00 0.00 0.00 43 1016.9
20260831124049 22 78 0.0 3.2 0.00 0.00 0.00 45 1016.8
20260831123544 22 78 0.0 3.2 0.00 0.00 0.00 46 1016.7
20260831123043 22 78 0.0 3.2 0.00 0.00 0.00 46 1016.7
20260831122544 22 78 0.0 3.2 0.00 0.00 0.00 45 1016.6
20260831122041 22 78 0.0 3.2 0.00 0.00 0.00 45 1016.5
20260831121545 22 78 0.0 3.2 0.00 0.00 0.00 45 1016.5
20260831121041 23 78 0.0 3.2 0.00 0.00 0.00 45 1016.5
20260831120543 23 78 0.0 3.2 0.00 0.00 0.00 44 1016.5
20260831120043 23 78 0.0 3.2 0.00 0.00 0.00 44 1016.6
20260831115538 23 64 0.0 6.4 0.00 0.00 0.00 44 1016.6
20260831115037 23 64 0.0 6.4 0.00 0.00 0.00 44 1016.6
20260831114537 23 64 1.6 6.4 0.00 0.00 0.00 42 1016.6
20260831114036 23 71 1.6 8.0 0.00 0.00 0.00 42 1016.6
20260831113537 23 74 1.6 8.0 0.00 0.00 0.00 42 1016.7
20260831113034 23 128 1.6 4.8 0.00 0.00 0.00 43 1016.8
20260831112533 23 179 0.0 6.4 0.00 0.00 0.00 43 1016.8
20260831112032 23 179 0.0 6.4 0.00 0.00 0.00 42 1016.7
20260831111531 23 179 1.6 8.0 0.00 0.00 0.00 42 1016.7
20260831111031 23 271 3.2 8.0 0.00 0.00 0.00 42 1016.7
20260831110532 24 197 1.6 6.4 0.00 0.00 0.00 41 1016.7
20260831110029 24 196 0.0 6.4 0.00 0.00 0.00 40 1016.6
20260831105530 24 190 3.2 6.4 0.00 0.00 0.00 40 1016.7
20260831105027 24 170 0.0 9.7 0.00 0.00 0.00 40 1016.6
20260831104531 25 170 0.0 11.3 0.00 0.00 0.00 39 1016.6
20260831104026 25 338 3.2 11.3 0.00 0.00 0.00 37 1016.5
20260831103525 25 306 3.2 9.7 0.00 0.00 0.00 38 1016.5
20260831103027 25 324 3.2 9.7 0.00 0.00 0.00 38 1016.4
20260831102524 25 303 1.6 6.4 0.00 0.00 0.00 39 1016.3
20260831102026 25 339 0.0 3.2 0.00 0.00 0.00 40 1016.3
20260831101524 25 339 1.6 3.2 0.00 0.00 0.00 40 1016.3
20260831101022 25 339 0.0 3.2 0.00 0.00 0.00 38 1016.2
20260831100522 25 339 0.0 3.2 0.00 0.00 0.00 39 1016.1
20260831100022 25 327 0.0 1.6 0.00 0.00 0.00 40 1016.0
20260831095624 25 327 0.0 0.0 0.00 0.00 0.00 40 1016.0
20260831095021 25 327 0.0 0.0 0.00 0.00 0.00 40 1016.0
20260831094534 26 327 0.0 1.6 0.00 0.00 0.00 39 1015.9
20260831094020 26 327 0.0 1.6 0.00 0.00 0.00 38 1015.8
20260831093518 26 327 0.0 0.0 0.00 0.00 0.00 38 1015.8
20260831093025 26 327 0.0 6.4 0.00 0.00 0.00 37 1015.8
20260831092519 26 327 0.0 6.4 0.00 0.00 0.00 37 1015.8
20260831092016 26 327 0.0 6.4 0.00 0.00 0.00 36 1015.8
20260831091533 26 303 0.0 3.2 0.00 0.00 0.00 37 1015.8
20260831091016 26 281 0.0 1.6 0.00 0.00 0.00 38 1015.8
20260831090517 26 281 0.0 1.6 0.00 0.00 0.00 36 1015.8
20260831090015 27 281 0.0 1.6 0.00 0.00 0.00 36 1015.8
20260831085514 27 281 0.0 1.6 0.00 0.00 0.00 35 1015.9
20260831085012 27 281 0.0 3.2 0.00 0.00 0.00 35 1015.8
20260831084536 27 281 0.0 3.2 0.00 0.00 0.00 34 1015.7
20260831084012 27 281 0.0 3.2 0.00 0.00 0.00 34 1015.7
20260831083511 27 281 0.0 3.2 0.00 0.00 0.00 34 1015.8
20260831083012 27 281 0.0 3.2 0.00 0.00 0.00 35 1015.8
20260831082511 27 281 0.0 6.4 0.00 0.00 0.00 34 1015.7
20260831082011 28 281 0.0 6.4 0.00 0.00 0.00 34 1015.8
20260831081511 28 276 0.0 9.7 0.00 0.00 0.00 33 1015.8
20260831081011 28 210 3.2 12.9 0.00 0.00 0.00 33 1015.8
20260831080510 30 187 4.8 11.3 0.00 0.00 0.00 31 1015.8
20260831080025 30 38 4.8 14.5 0.00 0.00 0.00 28 1015.6
20260831075508 28 42 4.8 14.5 0.00 0.00 0.00 33 1015.6
20260831075007 28 63 4.8 12.9 0.00 0.00 0.00 38 1016.0
20260831074518 28 77 0.0 6.4 0.00 0.00 0.00 33 1016.2
20260831074006 28 96 1.6 4.8 0.00 0.00 0.00 32 1016.2
20260831073508 28 341 1.6 6.4 0.00 0.00 0.00 33 1016.3
20260831073004 28 315 0.0 6.4 0.00 0.00 0.00 32 1016.3
20260831072507 28 313 0.0 9.7 0.00 0.00 0.00 32 1016.3
20260831072004 28 327 3.2 9.7 0.00 0.00 0.00 31 1016.3
20260831071503 28 334 4.8 9.7 0.00 0.00 0.00 31 1016.3
20260831071004 28 3 1.6 9.7 0.00 0.00 0.00 31 1016.3
20260831070504 28 9 4.8 12.9 0.00 0.00 0.00 30 1016.3
20260831070002 29 357 4.8 14.5 0.00 0.00 0.00 30 1016.3
20260831065504 29 360 6.4 14.5 0.00 0.00 0.00 29 1016.2
20260831065101 29 344 6.4 14.5 0.00 0.00 0.00 29 1016.3
20260831064601 29 341 9.7 16.1 0.00 0.00 0.00 29 1016.4
20260831064059 28 1 6.4 16.1 0.00 0.00 0.00 29 1016.4
20260831063557 28 1 1.6 16.1 0.00 0.00 0.00 28 1016.5
20260831063109 28 3 9.7 16.1 0.00 0.00 0.00 28 1016.5
20260831062559 28 11 3.2 8.0 0.00 0.00 0.00 27 1016.5
20260831062055 28 21 0.0 6.4 0.00 0.00 0.00 28 1016.5
20260831061553 28 9 0.0 6.4 0.00 0.00 0.00 30 1016.5
20260831061052 27 331 0.0 3.2 0.00 0.00 0.00 31 1016.3
20260831060550 27 331 0.0 3.2 0.00 0.00 0.00 32 1016.4
20260831060050 27 331 0.0 3.2 0.00 0.00 0.00 33 1016.3
20260831055551 27 345 0.0 3.2 0.00 0.00 0.00 31 1016.3
20260831055048 28 345 0.0 3.2 0.00 0.00 0.00 31 1016.3
20260831054549 28 344 0.0 3.2 0.00 0.00 0.00 31 1016.3
20260831054049 28 344 0.0 3.2 0.00 0.00 0.00 31 1016.3
20260831053549 28 342 0.0 1.6 0.00 0.00 0.00 30 1016.3
20260831053058 28 342 0.0 1.6 0.00 0.00 0.00 32 1016.3
20260831052548 28 342 0.0 0.0 0.00 0.00 0.00 32 1016.4
20260831052051 28 342 0.0 3.2 0.00 0.00 0.00 30 1016.4
20260831051550 28 342 0.0 6.4 0.00 0.00 0.00 30 1016.5
20260831051048 28 342 3.2 6.4 0.00 0.00 0.00 30 1016.4
20260831050547 28 327 1.6 8.0 0.00 0.00 0.00 30 1016.4
20260831050047 29 357 1.6 8.0 0.00 0.00 0.00 30 1016.4
20260831045547 29 355 3.2 8.0 0.00 0.00 0.00 30 1016.5
20260831045047 28 313 0.0 11.3 0.00 0.00 0.00 30 1016.5
20260831044547 28 276 6.4 11.3 0.00 0.00 0.00 30 1016.5
20260831044047 28 120 0.0 1.6 0.00 0.00 0.00 28 1016.3
20260831043548 28 120 0.0 1.6 0.00 0.00 0.00 28 1016.3
20260831043050 28 120 0.0 1.6 0.00 0.00 0.00 28 1016.2
20260831042546 28 120 0.0 1.6 0.00 0.00 0.00 28 1016.2
20260831042046 28 120 0.0 1.6 0.00 0.00 0.00 28 1016.2
20260831041550 28 120 0.0 0.0 0.00 0.00 0.00 29 1016.2
20260831041046 28 120 0.0 1.6 0.00 0.00 0.00 28 1016.1
20260831040545 29 120 0.0 1.6 0.00 0.00 0.00 28 1016.2
20260831040045 29 120 0.0 3.2 0.00 0.00 0.00 28 1016.1
20260831035545 29 120 0.0 1.6 0.00 0.00 0.00 28 1016.1
20260831035044 29 120 0.0 1.6 0.00 0.00 0.00 28 1016.0
20260831034549 29 120 0.0 1.6 0.00 0.00 0.00 29 1016.0
20260831034045 30 120 0.0 1.6 0.00 0.00 0.00 28 1015.9
20260831033544 29 120 0.0 1.6 0.00 0.00 0.00 29 1015.8
20260831033048 30 120 0.0 1.6 0.00 0.00 0.00 29 1015.8
20260831032541 30 120 0.0 0.0 0.00 0.00 0.00 29 1015.7
20260831032041 30 120 0.0 1.6 0.00 0.00 0.00 28 1015.7
20260831031542 30 120 0.0 3.2 0.00 0.00 0.00 27 1015.6
20260831031044 30 120 0.0 6.4 0.00 0.00 0.00 27 1015.5
20260831030541 30 135 0.0 4.8 0.00 0.00 0.00 28 1015.5
20260831030048 30 157 0.0 1.6 0.00 0.00 0.00 28 1015.4
20260831025540 31 157 0.0 0.0 0.00 0.00 0.00 28 1015.3
20260831025043 31 157 0.0 6.4 0.00 0.00 0.00 28 1015.3
20260831024549 31 157 0.0 6.4 0.00 0.00 0.00 27 1015.2
20260831024040 31 157 0.0 1.6 0.00 0.00 0.00 28 1015.1
20260831023540 32 157 0.0 3.2 0.00 0.00 0.00 26 1015.1
20260831023039 32 157 0.0 3.2 0.00 0.00 0.00 25 1015.1
20260831022539 32 157 0.0 6.4 0.00 0.00 0.00 24 1015.0
20260831022039 33 157 1.6 8.0 0.00 0.00 0.00 23 1015.0
20260831021539 33 167 1.6 8.0 0.00 0.00 0.00 23 1015.0
20260831021039 33 160 3.2 9.7 0.00 0.00 0.00 23 1014.9
20260831020541 33 165 1.6 12.9 0.00 0.00 0.00 23 1014.9
20260831020039 33 171 6.4 12.9 0.00 0.00 0.00 22 1014.9
20260831015538 33 144 4.8 9.7 0.00 0.00 0.00 23 1014.9
20260831015038 33 171 1.6 8.0 0.00 0.00 0.00 22 1014.8
20260831014541 33 190 1.6 11.3 0.00 0.00 0.00 22 1014.8
20260831014040 33 179 6.4 11.3 0.00 0.00 0.00 22 1014.7
20260831013538 33 185 3.2 11.3 0.00 0.00 0.00 22 1014.8
20260831013040 33 179 3.2 8.0 0.00 0.00 0.00 22 1014.7
20260831012540 33 198 3.2 8.0 0.00 0.00 0.00 22 1014.7
20260831012040 34 180 4.8 11.3 0.00 0.00 0.00 21 1014.7
20260831011539 34 194 3.2 11.3 0.00 0.00 0.00 21 1014.6
20260831011037 34 214 3.2 11.3 0.00 0.00 0.00 21 1014.7
20260831010536 34 206 4.8 11.3 0.00 0.00 0.00 21 1014.6
20260831010039 34 186 6.4 11.3 0.00 0.00 0.00 21 1014.6
20260831005537 35 211 1.6 11.3 0.00 0.00 0.00 20 1014.7
20260831005037 35 219 3.2 11.3 0.00 0.00 0.00 21 1014.7
20260831004540 35 230 6.4 14.5 0.00 0.00 0.00 20 1014.8
20260831004037 35 225 6.4 14.5 0.00 0.00 0.00 20 1014.7
20260831003537 35 205 6.4 14.5 0.00 0.00 0.00 20 1014.8